Regional Weather Roundup
Issued by NWS

Home | Current Version | Previous Version | Text Only | Print | Product List | Glossary On
Versions: 1 2 3 4 5 6 7 8 9 10 11 12 13 14 15 16 17 18 19 20 21 22 23 24 25 26 27 28 29 30 31 32 33 34 35 36 37 38 39 40 41 42 43 44 45 46 47 48 49 50
714
ASUS44 KOUN 101510
RWROK

WEATHER ROUNDUP FOR OKLAHOMA
NATIONAL WEATHER SERVICE NORMAN OK
900 AM CST WED FEB 10 2016

NOTE: "FAIR" INDICATES FEW OR NO CLOUDS BELOW 12,000 FEET WITH NO
      SIGNIFICANT WEATHER AND/OR OBSTRUCTIONS TO VISIBILITY.

OKZ001>007-009>012-014-015-017-101600-
NORTHWEST OKLAHOMA AND THE PANHANDLE

CITY           SKY/WX    TMP DP  RH WIND       PRES   REMARKS
GAGE           SUNNY     38  30  73 W6        30.16S WCI  33
GUYMON         SUNNY     44  21  40 W12       30.14F
ENID/WOODRING  SUNNY     34  28  80 S15       30.16F WCI  24
$$

OKZ016-021>023-033>039-044-045-101600-
SOUTHWEST OKLAHOMA

CITY           SKY/WX    TMP DP  RH WIND       PRES   REMARKS
LAWTON/REGL    SUNNY     38  28  67 W5        30.28S WCI  34
LAWTON/FT SILL SUNNY     42  26  52 SW10      30.25S
FREDERICK      SUNNY     38  30  73 S5        30.24  WCI  34
CLINTON        SUNNY     38  25  59 SW21      30.22S WCI  28
HOBART         SUNNY     38  28  67 SW13      30.25S WCI  30
ALTUS AFB      SUNNY     36  26  65 VRB1      30.27R
$$

OKZ018>020-024>031-101600-
CENTRAL OKLAHOMA

CITY           SKY/WX    TMP DP  RH WIND       PRES   REMARKS
OKLAHOMA CITY  SUNNY     40  25  55 SW16      30.22S WCI  31
OKC/WILEY POST SUNNY     41  24  51 SW22      30.21S
OKC/TINKER AFB SUNNY     37  24  58 S16       30.21S WCI  27
STILLWATER     SUNNY     33  19  56 S14       30.20F WCI  23
GUTHRIE        SUNNY     37  22  54 S9        30.20F WCI  30
$$

OKZ008-013-054>072-101600-
NORTHEAST OKLAHOMA

CITY           SKY/WX    TMP DP  RH WIND       PRES   REMARKS
TULSA          MOSUNNY   31  11  43 S13       30.25F WCI  21
TULSA/JONES    SUNNY     31  11  43 S8        30.27F WCI  23
PONCA CITY     SUNNY     34  18  52 S10       30.18S WCI  26
BARTLESVILLE   SUNNY     31  10  41 S13G21    30.24F WCI  21
MUSKOGEE       SUNNY     30  16  56 S6        30.31S WCI  24
$$

OKZ032-040>043-046>053-073>077-101600-
SOUTH CENTRAL/SOUTHEAST OKLAHOMA

CITY           SKY/WX    TMP DP  RH WIND       PRES   REMARKS
ARDMORE/DWNTWN SUNNY     37  23  56 CALM      30.31R
MCALESTER      MOSUNNY   32  15  49 S6        30.30S WCI  26
$$





USA.gov is the U.S. government's official web portal to all federal, state and local government web resources and services.